Probability
0 0 1 2 2 1 0 0 0 0 0 0 0 0 0 1 2 3 3 3 3 2 1 3 9 13 12 8 5 4 2 0 0 0 1 2 3 3 4 4 5 4 3 1 0 0 0 0 0
0 0 1 1 1 0 0 0 0 0 0 0 0 0 0 1 3 3 3 3 3 2 1 3 9 13 14 11 7 5 3 1 0 0 0 1 2 2 2 2 3 4 2 1 0 0 0 0 0
0 0 0 0 0 0 0 0 0 0 0 0 0 0 1 2 3 3 3 3 3 2 0 3 9 13 14 12 10 7 4 2 1 1 1 1 1 1 0 0 1 2 2 0 0 0 0 0 0
1 0 0 0 0 0 0 0 0 0 0 0 0 0 1 2 3 3 3 3 4 3 2 5 10 13 13 12 10 9 7 5 3 2 1 1 0 0 0 0 0 1 1 0 0 0 0 0 0
2 1 0 0 0 0 0 0 0 0 0 0 0 0 1 2 2 2 2 3 4 5 4 5 9 13 13 12 11 10 8 7 5 4 3 2 1 0 0 0 0 0 0 0 0 0 0 0 0
2 1 0 0 0 0 0 0 0 0 0 0 0 0 0 1 1 1 1 2 3 4 4 4 6 9 11 10 9 8 7 7 6 4 3 2 1 0 0 0 0 0 0 0 0 0 0 0 0
3 2 1 0 0 0 0 0 0 0 0 0 0 0 0 0 0 0 0 1 2 3 3 3 3 4 6 6 5 5 6 7 6 3 2 1 0 0 0 0 0 0 0 0 0 0 0 0 0
3 2 1 0 0 0 0 0 0 0 0 0 1 1 1 0 0 0 0 0 1 1 2 3 3 2 2 2 2 3 4 5 4 1 1 0 0 0 0 0 0 0 0 0 0 0 0 0 0
2 1 0 0 0 0 0 0 0 0 0 1 2 3 2 1 0 0 0 0 0 0 1 2 3 3 2 1 1 1 1 2 1 0 0 0 0 0 0 0 0 0 0 0 0 0 0 0 0
2 1 0 0 0 0 0 0 0 0 0 0 1 3 2 1 0 0 0 0 0 0 0 1 2 3 2 1 0 0 0 0 0 0 0 0 0 0 0 0 0 0 0 0 0 0 0 0 0
1 0 0 0 0 0 0 0 0 0 0 0 0 1 1 0 0 0 0 0 0 0 0 0 1 1 1 1 0 0 0 0 0 0 0 0 0 0 0 0 0 0 0 0 0 0 0 0 0
0 0 0 0 0 0 0 0 0 0 0 1 1 1 1 0 0 0 0 0 0 0 0 0 0 0 1 0 0 0 0 1 0 0 0 0 0 0 0 0 0 0 0 0 0 0 0 0 0
0 0 0 0 0 0 0 0 0 0 0 1 1 1 0 0 0 0 0 0 0 0 0 0 0 0 1 1 0 0 0 0 0 0 0 0 0 0 0 0 0 0 0 0 0 0 0 0 0
0 0 0 0 0 0 0 0 0 0 0 1 1 0 0 0 0 0 0 0 0 0 0 0 0 0 1 1 0 0 0 0 0 1 1 1 0 0 0 0 0 1 0 0 0 0 0 0 0
0 0 0 0 0 0 0 0 0 0 0 0 0 0 0 0 0 0 0 0 0 0 0 0 0 0 0 0 0 0 0 0 0 1 2 2 1 0 0 0 0 0 0 0 0 0 0 0 0
0 0 0 0 0 0 0 0 0 0 0 0 0 0 0 0 0 0 0 0 0 0 0 0 0 0 0 0 0 0 0 0 0 0 1 2 2 1 0 0 0 0 0 1 0 0 0 0 0
0 0 0 0 0 0 0 0 0 0 0 0 0 0 0 0 0 0 0 0 0 0 0 0 0 0 0 0 0 0 0 0 0 0 0 1 2 1 0 0 0 0 0 0 0 0 0 0 0
0 0 0 0 0 0 0 0 0 0 0 0 0 0 0 0 0 0 0 1 2 1 1 1 1 0 0 0 0 0 0 0 0 0 0 0 1 1 0 0 0 0 0 0 0 0 0 0 0
0 0 0 0 0 0 0 0 0 0 0 0 0 0 0 0 0 0 0 1 3 3 3 2 1 0 0 0 0 0 0 0 0 0 0 0 0 0 0 0 0 0 0 0 0 0 0 0 0
0 0 0 0 0 0 0 0 0 0 0 0 0 0 0 0 0 0 0 1 4 4 3 3 2 1 0 0 0 0 0 0 0 0 0 0 0 0 0 0 0 0 0 0 0 0 0 0 0
0 0 0 0 0 0 0 0 0 0 0 0 0 0 0 0 0 0 0 1 3 3 2 2 2 2 1 1 0 0 0 0 0 0 0 0 0 0 0 0 0 0 0 0 0 0 0 0 0
0 0 0 0 0 0 0 0 0 0 0 0 0 0 0 0 0 0 0 1 3 2 1 1 1 1 2 1 0 0 0 0 0 0 0 0 0 0 0 0 0 0 0 0 0 0 0 0 0
0 0 0 0 0 0 0 0 0 0 0 0 0 0 0 0 0 0 0 1 2 2 1 0 0 1 1 1 0 0 0 0 0 0 0 0 0 0 0 0 0 0 0 0 0 0 0 0 0
0 0 0 0 0 0 0 0 0 0 0 0 0 0 0 0 0 0 0 1 1 1 0 0 0 0 0 0 0 0 0 0 0 0 0 0 0 0 0 0 0 0 0 0 0 0 0 0 0
0 0 0 0 0 0 0 0 0 0 0 0 0 0 0 0 0 0 0 0 0 0 0 0 0 0 0 0 0 0 0 0 0 0 0 0 0 0 0 0 0 0 0 0 0 0 0 0 0
0 0 0 0 0 0 0 0 0 0 0 0 0 0 0 0 0 0 0 0 0 0 0 0 0 0 0 0 0 0 0 0 0 0 0 0 0 0 0 0 0 0 0 0 0 0 0 0 0
0 0 0 0 0 0 0 0 0 0 0 0 0 0 0 0 0 0 0 0 0 0 0 0 0 0 0 0 0 0 0 0 0 0 0 0 0 0 0 0 0 0 0 0 0 0 0 0 0
0 0 0 0 0 0 0 0 0 0 0 0 0 0 0 0 0 0 0 0 0 0 0 0 0 0 0 0 0 0 0 0 0 0 0 0 0 0 0 0 0 0 0 0 0 0 0 0 0
0 0 0 0 0 0 0 0 0 0 0 0 0 0 0 0 0 0 0 0 0 0 0 0 0 0 0 0 0 0 0 0 0 0 0 0 0 0 0 0 0 0 0 0 0 0 0 0 0
0 0 0 0 0 0 0 0 0 0 0 0 0 0 0 0 0 0 0 0 0 0 0 0 0 0 0 0 0 0 0 0 0 0 0 0 0 0 0 0 0 0 0 0 0 0 0 0 0
Wind_Speed
12 10 6 2 2 4 6 4 1 3 4 5 6 5 6 7 6 7 3 6 5 6 7 6 7 7 8 9 9 9 9 10 10 10 11 11 11 11 11 11 11 11 12 12 12 12 12 12 12
9 7 3 2 3 4 5 4 2 4 6 5 4 3 4 6 7 6 3 4 5 6 6 6 7 8 8 9 10 10 9 9 10 10 11 11 10 11 11 11 11 11 12 12 12 12 12 12 11
9 6 3 3 4 5 2 3 6 7 6 3 2 4 5 5 5 4 3 3 5 7 7 6 8 8 8 9 10 10 9 9 9 10 11 10 10 10 10 11 11 12 11 11 11 11 12 11 11
4 2 3 4 7 4 2 3 6 5 4 2 3 5 5 5 4 4 3 3 6 7 7 6 8 8 8 9 9 9 9 9 9 10 10 10 10 10 10 10 11 11 11 11 11 11 11 10 10
2 3 4 6 8 4 2 3 4 3 3 2 2 3 5 4 6 6 4 5 7 7 7 6 7 8 8 8 9 9 9 9 10 10 10 10 10 10 10 10 10 10 11 10 10 10 10 9 9
3 3 5 7 7 5 3 1 2 2 2 2 3 3 5 5 5 5 5 5 7 7 6 6 7 7 8 8 9 9 9 9 9 10 10 10 10 10 10 9 10 10 10 10 9 9 9 9 8
3 3 6 7 5 4 2 2 1 1 2 1 1 3 5 5 4 4 5 5 7 7 6 5 4 5 7 7 8 9 9 10 9 10 9 9 9 9 9 9 9 9 9 9 9 8 8 8 7
3 3 6 6 6 4 1 2 3 3 2 3 3 2 5 5 5 4 5 5 6 6 6 4 4 4 4 4 7 8 9 9 9 9 8 8 8 8 9 9 8 8 8 8 9 8 8 7 6
3 4 6 5 4 1 2 1 2 2 3 3 3 4 6 9 6 4 4 5 5 6 5 4 4 3 3 4 6 6 7 8 8 7 7 5 4 4 5 6 7 7 7 7 7 7 6 5 5
3 4 5 3 3 1 1 1 1 2 2 2 3 5 7 7 5 4 3 4 4 4 4 4 4 3 3 4 4 3 3 3 4 3 3 2 3 3 4 5 7 6 6 6 6 5 4 3 2
3 3 2 3 4 2 1 1 1 2 2 2 4 6 7 6 4 3 3 4 4 4 3 3 3 3 3 2 2 2 1 2 3 3 3 3 3 2 3 2 3 3 3 2 2 2 1 2 2
3 3 3 2 3 2 1 1 2 2 1 1 4 6 6 5 4 3 3 3 4 4 4 3 3 3 2 2 2 2 2 2 2 3 4 2 2 2 2 2 1 1 1 1 1 1 2 2 3
6 4 2 2 1 2 2 3 3 3 1 1 4 4 5 4 4 3 3 3 4 4 4 3 3 3 2 2 2 2 2 2 3 3 2 3 2 2 2 1 2 2 1 1 2 2 2 2 2
2 3 4 3 2 3 4 4 4 5 2 2 3 4 4 4 4 3 3 3 3 4 4 3 3 3 3 2 2 2 2 2 3 3 3 3 2 2 2 2 2 2 2 2 1 2 2 2 2
2 3 5 5 5 3 3 6 8 6 4 4 4 4 4 4 3 3 4 4 3 4 4 3 3 3 3 2 1 2 2 3 3 2 3 3 3 2 2 2 1 1 1 2 2 2 2 2 2
5 5 5 4 5 4 4 7 5 6 6 6 5 5 4 4 4 3 4 4 4 4 4 4 3 3 3 2 1 2 2 3 2 2 2 3 3 3 2 2 1 2 2 1 1 1 2 2 2
5 5 6 4 4 4 5 6 3 3 5 5 5 5 5 5 4 4 4 4 4 4 4 5 4 3 3 3 2 2 2 3 2 2 2 2 2 3 2 2 2 2 2 2 2 2 1 1 2
4 5 5 5 4 4 6 7 4 4 5 6 5 5 5 5 4 4 5 5 5 4 4 5 4 4 3 3 2 2 2 2 2 2 2 3 2 3 3 2 2 2 2 2 2 2 2 1 1
6 5 6 4 1 3 7 8 7 6 6 6 6 6 6 5 5 5 5 5 5 4 4 4 4 4 3 2 2 1 1 1 2 2 3 3 2 2 2 2 2 2 2 1 2 2 2 2 2
6 6 6 3 1 2 5 9 6 6 7 7 7 6 6 5 5 5 5 5 5 4 4 4 4 4 4 2 2 1 1 1 1 2 2 2 2 2 2 2 1 1 1 2 2 1 1 1 2
6 5 5 4 4 3 5 7 7 6 6 6 5 5 5 6 6 5 5 5 5 5 4 4 3 4 4 3 3 2 2 1 1 1 1 1 1 1 2 1 1 1 1 0 0 1 1 1 1
5 2 4 3 2 3 3 5 4 4 5 7 7 6 5 6 6 5 5 5 5 4 4 4 3 3 4 4 4 3 3 2 2 2 1 1 1 1 1 1 1 1 1 0 0 1 1 1 1
2 2 3 4 4 4 4 4 6 4 5 6 5 5 4 5 5 5 5 5 4 4 4 4 4 3 3 3 4 3 2 2 1 1 2 1 1 1 1 1 1 0 0 0 0 0 0 0 1
1 2 3 3 2 5 7 6 6 3 4 4 3 3 3 4 4 4 4 5 4 4 4 4 4 3 3 3 3 3 3 3 3 2 2 1 1 1 1 1 1 1 1 1 1 1 1 1 1
1 1 1 2 3 6 5 5 6 1 1 2 2 3 3 4 3 3 4 5 4 4 4 4 4 4 3 3 3 3 3 4 4 3 3 2 1 1 2 1 1 1 1 1 2 1 2 2 2
4 4 3 3 3 2 2 5 4 1 2 3 3 4 3 3 3 3 4 4 4 4 4 4 4 4 4 4 3 3 3 2 2 2 2 2 2 2 2 2 2 2 2 2 1 1 2 2 2
3 4 2 2 3 3 5 4 2 2 2 2 3 3 3 3 3 2 3 3 3 4 4 4 4 3 3 3 3 3 3 2 2 2 1 2 2 2 2 2 2 2 2 2 2 2 2 2 2
2 1 1 2 3 4 4 5 4 4 4 3 3 3 3 3 2 2 2 3 3 3 3 3 3 3 3 2 3 2 2 2 2 2 2 2 2 2 2 2 2 2 1 2 2 2 2 2 2
4 3 3 3 3 3 3 3 1 2 3 3 2 3 3 3 2 2 2 2 2 2 2 2 2 2 2 2 2 2 2 2 2 2 3 2 2 2 2 2 2 2 2 2 2 2 2 2 2
2 3 4 3 4 3 3 5 2 3 4 3 2 2 2 2 2 2 1 1 2 2 2 2 2 2 2 2 2 2 2 2 2 2 2 2 2 2 2 2 2 3 2 2 2 2 2 2 2
Wind_Direction
301 281 264 259 246 229 241 242 235 79 63 45 30 29 44 36 40 101 100 54 64 90 101 99 85 90 93 94 91 87 85 84 83 83 83 80 77 76 74 73 72 72 73 73 71 72 75 76 73
295 290 271 241 244 232 232 213 145 78 80 70 42 33 67 71 66 89 67 44 73 89 96 98 90 91 92 94 93 91 88 85 84 83 82 80 78 74 73 72 71 71 72 73 72 72 73 74 72
278 269 256 232 237 241 265 76 85 80 85 87 75 34 42 62 71 75 54 57 78 85 85 88 92 93 93 95 95 92 89 89 88 86 84 78 76 74 74 74 72 71 71 72 72 71 70 69 67
276 249 243 244 246 249 264 90 91 99 90 69 92 85 73 52 65 75 62 63 76 76 84 86 86 93 95 94 95 94 91 89 90 90 86 81 78 75 74 72 71 71 71 72 72 69 67 65 63
245 250 234 235 243 250 283 83 102 125 130 135 122 94 85 66 77 80 72 64 74 71 76 84 80 91 94 94 95 94 90 88 89 88 85 83 80 77 73 73 71 71 70 70 71 69 66 62 61
251 243 238 233 233 220 217 141 133 157 132 133 116 106 96 95 85 84 79 69 73 71 70 82 72 85 89 91 93 94 91 89 89 87 86 83 80 78 76 73 73 72 69 66 67 67 66 62 58
260 254 251 250 239 228 185 116 144 173 131 80 55 108 115 109 98 99 91 79 78 75 70 66 73 89 92 91 92 94 93 90 89 87 86 84 81 75 74 69 70 72 70 68 65 65 64 62 57
281 274 250 245 245 239 125 92 63 25 55 46 21 103 129 127 119 110 99 88 80 72 68 61 56 82 92 96 92 92 91 89 87 83 81 81 81 76 72 66 67 69 69 67 64 60 57 55 54
261 249 245 248 250 231 102 94 89 51 78 72 48 49 103 120 126 112 99 86 76 66 56 60 55 71 87 92 91 89 89 87 88 82 76 76 76 73 69 67 67 69 69 69 64 58 53 49 48
216 244 248 300 335 356 80 61 94 151 162 153 113 95 108 120 127 124 115 106 90 76 55 49 50 61 80 91 95 88 88 89 85 79 70 64 66 68 70 67 69 70 66 64 58 48 45 32 25
219 242 282 315 356 3 339 324 287 231 228 208 156 138 133 129 130 134 129 119 110 101 75 53 47 53 65 83 100 90 88 89 84 81 63 61 70 68 68 63 64 61 61 57 49 26 11 15 11
242 259 275 301 355 351 292 279 293 274 283 8 107 129 132 137 147 149 136 121 116 106 93 70 59 51 57 60 88 94 83 85 84 77 71 64 67 62 60 61 54 46 38 27 12 7 18 12 6
236 245 265 308 336 303 268 241 254 257 258 76 107 125 142 153 156 145 130 122 121 118 108 95 76 69 61 63 69 84 86 81 86 80 70 66 68 66 61 54 50 37 32 28 9 14 11 6 7
262 250 243 232 231 246 242 245 234 230 196 165 155 159 167 165 162 150 136 131 128 123 123 111 93 83 77 74 80 83 84 79 79 77 70 68 66 63 60 57 47 34 25 20 16 17 16 6 6
263 253 246 224 202 207 228 246 231 221 200 204 191 173 165 162 159 155 148 143 137 125 121 112 108 94 86 73 78 87 88 84 81 77 69 68 70 71 67 60 50 28 16 25 22 20 23 11 6
232 235 236 210 198 187 212 249 225 189 193 208 198 180 171 166 167 158 148 140 133 128 126 123 111 107 104 91 83 92 90 86 84 80 76 67 66 69 72 63 45 25 20 28 26 30 24 15 9
215 233 234 211 197 190 210 253 241 186 198 210 202 189 181 176 174 162 150 142 136 138 138 132 124 118 115 108 97 96 98 96 94 86 81 65 65 67 73 62 48 41 29 18 18 26 29 21 4
227 237 247 228 192 210 228 247 244 228 220 219 212 196 188 184 177 154 146 141 140 140 140 137 131 122 116 115 101 88 87 90 93 89 88 74 64 65 69 67 50 44 48 30 30 25 18 20 354
283 282 273 274 187 222 241 252 245 224 222 218 213 200 189 182 162 147 144 144 143 139 142 142 137 134 127 125 126 119 105 98 92 89 89 84 72 64 70 71 68 55 55 41 41 42 25 4 359
270 270 278 288 146 262 269 267 252 231 223 213 209 201 190 177 164 158 151 151 152 148 149 146 151 149 142 139 139 144 132 131 114 97 88 83 78 69 68 81 79 68 68 49 38 48 41 360 15
256 254 269 285 314 265 274 275 235 228 219 213 214 205 187 179 178 173 166 165 158 154 160 157 158 150 144 134 123 111 92 76 93 119 119 99 90 88 75 76 87 77 85 108 46 64 67 21 332
263 293 286 285 286 267 228 282 254 218 211 210 206 205 198 183 174 170 170 164 158 154 152 154 155 153 150 144 150 163 165 171 187 159 146 131 118 103 88 78 79 105 87 96 5 42 44 101 297
255 307 290 273 257 276 241 250 267 212 221 214 198 193 187 173 169 169 166 160 153 144 151 160 157 160 155 161 167 174 175 163 140 138 142 139 138 117 103 112 100 125 133 130 104 43 353 228 224
272 286 272 262 245 258 228 216 268 222 210 187 170 166 157 150 152 156 153 142 140 139 148 159 159 168 168 172 176 183 180 165 154 164 166 161 157 139 155 153 139 167 167 171 191 206 238 247 254
195 151 253 230 219 239 214 210 245 244 82 131 139 147 140 131 134 136 142 141 143 146 153 160 162 168 172 173 184 190 182 176 174 177 175 173 179 182 191 176 176 197 210 205 201 208 228 235 239
199 191 198 232 237 260 220 228 236 164 97 84 104 115 113 125 136 138 147 148 152 158 166 168 174 175 174 178 186 183 174 173 178 178 176 186 192 191 187 188 198 207 218 235 206 215 227 233 240
205 215 240 291 291 274 241 230 233 172 140 137 131 135 148 147 137 136 139 143 153 161 172 174 177 180 179 180 178 178 175 179 186 184 176 187 187 188 183 197 210 214 220 223 216 218 233 231 236
245 239 194 204 240 259 249 232 228 185 187 172 153 145 150 144 138 140 140 142 150 157 167 168 171 175 177 172 180 184 181 182 180 177 195 198 197 188 183 194 204 209 220 222 223 228 235 235 244
196 204 211 232 246 244 269 266 2 137 142 139 140 142 135 141 147 149 157 152 151 143 150 160 166 168 168 173 179 177 181 185 183 190 201 195 191 189 194 197 206 213 218 223 232 244 239 234 251
223 214 188 205 246 235 254 270 12 64 75 94 104 112 115 114 135 135 133 132 137 151 159 155 165 172 175 174 180 185 181 184 191 198 200 192 193 198 204 206 214 223 228 226 229 246 249 234 239